SBI5319 UNNT-UNKL

Flight info

Callsign SBI5319
Flight time N/A
Altitude 35000
Route OGATI A308 RISPA A366 KESED A309 ROTLI A300 RANET
Aircraft A319/M-SDE3FGHIRWY/LB1

Departure

Time 2026-05-01 14:41
Airport Novosibirsk Tolmachevo Airport (UNNT)

Arrival

Time N/A
Airport Krasnoyarsk International Airport (UNKL)
Time Latitude Longitude Altitude Speed Heading
2026-05-01 13:35 55.01134 82.67020 373 ft 0 kts 171°
2026-05-01 14:31 55.01107 82.67028 373 ft 7 kts 172°
2026-05-01 14:31 55.01078 82.66946 373 ft 11 kts 262°
2026-05-01 14:32 55.01099 82.66808 373 ft 13 kts 276°
2026-05-01 14:32 55.01078 82.66624 373 ft 18 kts 248°
2026-05-01 14:32 55.01030 82.66422 373 ft 20 kts 249°
2026-05-01 14:32 55.00983 82.66192 373 ft 20 kts 248°
2026-05-01 14:33 55.00943 82.65955 373 ft 21 kts 262°
2026-05-01 14:33 55.00922 82.65707 373 ft 21 kts 261°
2026-05-01 14:33 55.00899 82.65440 373 ft 24 kts 261°
2026-05-01 14:33 55.00879 82.65146 373 ft 25 kts 263°
2026-05-01 14:34 55.00891 82.64853 373 ft 25 kts 283°
2026-05-01 14:34 55.00929 82.64562 373 ft 25 kts 283°
2026-05-01 14:34 55.00966 82.64280 373 ft 16 kts 282°
2026-05-01 14:34 55.00990 82.64095 373 ft 13 kts 283°
2026-05-01 14:35 55.00992 82.64083 373 ft 0 kts 283°
2026-05-01 14:36 55.00992 82.64080 373 ft 1 kts 283°
2026-05-01 14:37 55.01005 82.64027 374 ft 7 kts 308°
2026-05-01 14:37 55.01021 82.64010 374 ft 0 kts 342°
2026-05-01 14:38 55.01024 82.64009 374 ft 2 kts 342°
2026-05-01 14:38 55.01063 82.63997 375 ft 8 kts 351°
2026-05-01 14:38 55.01120 82.63984 375 ft 9 kts
2026-05-01 14:39 55.01154 82.64073 375 ft 2 kts 83°
2026-05-01 14:39 55.01154 82.64078 375 ft 0 kts 82°
2026-05-01 14:40 55.01154 82.64079 375 ft 1 kts 82°
2026-05-01 14:40 55.01175 82.64327 374 ft 58 kts 81°
2026-05-01 14:40 55.01275 82.65442 373 ft 126 kts 81°
2026-05-01 14:41 55.01432 82.67217 594 ft 157 kts 81°
2026-05-01 14:41 55.01651 82.69116 1123 ft 162 kts 79°
2026-05-01 14:41 55.01927 82.71074 1698 ft 172 kts 84°
2026-05-01 14:41 55.02130 82.73242 2030 ft 192 kts 88°
2026-05-01 14:42 55.02135 82.75640 2352 ft 210 kts 104°
2026-05-01 14:42 55.01855 82.78297 2764 ft 236 kts 104°
2026-05-01 14:42 55.01547 82.81214 3433 ft 251 kts 104°
2026-05-01 14:42 55.01229 82.84233 4181 ft 255 kts 103°
2026-05-01 14:43 55.00908 82.87297 4934 ft 259 kts 103°
2026-05-01 14:43 55.00582 82.90409 5678 ft 264 kts 103°
2026-05-01 14:43 55.00246 82.93591 6436 ft 270 kts 103°
2026-05-01 14:43 54.99901 82.96840 7157 ft 276 kts 103°
2026-05-01 14:44 54.99551 83.00160 7897 ft 281 kts 103°
2026-05-01 14:44 54.98831 83.06981 9429 ft 291 kts 103°
2026-05-01 14:44 54.98459 83.10486 10176 ft 297 kts 103°
2026-05-01 14:45 54.98070 83.14099 10725 ft 314 kts 103°
2026-05-01 14:45 54.97205 83.22091 11505 ft 352 kts 103°
2026-05-01 14:45 54.96786 83.26328 12221 ft 359 kts 101°
2026-05-01 14:46 54.96443 83.30672 12957 ft 365 kts 99°
2026-05-01 14:46 54.95848 83.39519 14347 ft 375 kts 98°
2026-05-01 14:46 54.95539 83.44061 15003 ft 380 kts 99°
2026-05-01 14:47 54.95210 83.48715 15680 ft 384 kts 99°
2026-05-01 14:47 54.94874 83.53293 16329 ft 388 kts 99°
2026-05-01 14:47 54.94522 83.57977 16991 ft 393 kts 99°
2026-05-01 14:48 54.93789 83.67497 18279 ft 401 kts 99°
2026-05-01 14:48 54.93413 83.72324 18856 ft 405 kts 99°
2026-05-01 14:48 54.92657 83.82096 20070 ft 410 kts 99°
2026-05-01 14:49 54.91892 83.91987 21292 ft 415 kts 99°
2026-05-01 14:49 54.91103 84.01991 22479 ft 421 kts 99°
2026-05-01 14:50 54.90567 84.08686 23218 ft 424 kts 99°
2026-05-01 14:50 54.89459 84.22394 24464 ft 432 kts 99°
2026-05-01 14:51 54.89035 84.27580 24877 ft 435 kts 99°
2026-05-01 14:51 54.88178 84.37990 25681 ft 441 kts 99°
2026-05-01 14:52 54.87290 84.48617 26474 ft 447 kts 99°
2026-05-01 14:52 54.86841 84.53974 26864 ft 450 kts 99°
2026-05-01 14:52 54.86083 84.62971 27520 ft 455 kts 99°
2026-05-01 14:53 54.85631 84.68419 27912 ft 458 kts 98°
2026-05-01 14:53 54.85257 84.73945 28295 ft 462 kts 96°
2026-05-01 14:53 54.84963 84.79505 28669 ft 465 kts 95°
2026-05-01 14:53 54.84713 84.85115 29039 ft 467 kts 95°
2026-05-01 14:54 54.84470 84.90755 29391 ft 470 kts 95°
2026-05-01 14:54 54.84212 84.96436 29739 ft 473 kts 95°
2026-05-01 14:54 54.83927 85.02138 30083 ft 476 kts 95°
2026-05-01 14:54 54.83617 85.07866 30387 ft 478 kts 96°
2026-05-01 14:55 54.83292 85.13626 30682 ft 480 kts 95°
2026-05-01 14:55 54.83231 85.19351 30974 ft 482 kts 85°
2026-05-01 14:55 54.83735 85.25092 31299 ft 481 kts 75°
2026-05-01 14:55 54.84798 85.30558 31751 ft 478 kts 64°
2026-05-01 14:56 54.86366 85.35614 32198 ft 473 kts 54°
2026-05-01 14:56 54.88364 85.40104 32640 ft 468 kts 45°
2026-05-01 14:56 54.90615 85.44171 33097 ft 466 kts 43°
2026-05-01 14:56 54.92863 85.48219 33564 ft 464 kts 43°
2026-05-01 14:57 54.95097 85.52261 34017 ft 463 kts 43°
2026-05-01 14:57 54.99539 85.60314 34825 ft 459 kts 43°
2026-05-01 14:57 55.01721 85.64277 35008 ft 458 kts 43°
2026-05-01 14:58 55.06096 85.72240 35047 ft 453 kts 43°
2026-05-01 14:58 55.10449 85.80181 35051 ft 452 kts 43°
2026-05-01 14:59 55.14786 85.88125 35056 ft 452 kts 43°
2026-05-01 14:59 55.19113 85.96096 35055 ft 452 kts 43°
2026-05-01 15:00 55.25559 86.08159 35058 ft 453 kts 48°
2026-05-01 15:01 55.28788 86.17714 35059 ft 460 kts 64°
2026-05-01 15:01 55.31289 86.27962 35057 ft 460 kts 64°
2026-05-01 15:02 55.33814 86.38276 35052 ft 460 kts 64°
2026-05-01 15:02 55.36339 86.48632 35050 ft 460 kts 64°
2026-05-01 15:03 55.38846 86.58979 35053 ft 460 kts 64°
2026-05-01 15:03 55.41357 86.69352 35052 ft 461 kts 64°
2026-05-01 15:04 55.43853 86.79758 35054 ft 461 kts 64°
2026-05-01 15:04 55.46339 86.90163 35055 ft 461 kts 63°
2026-05-01 15:05 55.48826 87.00597 35052 ft 462 kts 63°
2026-05-01 15:05 55.51302 87.11055 35056 ft 462 kts 63°
2026-05-01 15:06 55.53755 87.21477 35064 ft 462 kts 64°
2026-05-01 15:06 55.56209 87.31980 35066 ft 463 kts 63°
2026-05-01 15:07 55.58662 87.42491 35066 ft 463 kts 63°
2026-05-01 15:07 55.61101 87.53034 35065 ft 463 kts 63°
2026-05-01 15:08 55.63540 87.63590 35065 ft 463 kts 63°
2026-05-01 15:08 55.65980 87.74156 35069 ft 464 kts 63°
2026-05-01 15:09 55.68394 87.84689 35073 ft 464 kts 63°
2026-05-01 15:09 55.70811 87.95291 35076 ft 464 kts 63°
2026-05-01 15:10 55.73215 88.05917 35076 ft 464 kts 63°
2026-05-01 15:10 55.76814 88.21881 35081 ft 464 kts 63°
2026-05-01 15:11 55.80380 88.37885 35082 ft 464 kts 63°
2026-05-01 15:12 55.82750 88.48552 35086 ft 464 kts 63°
2026-05-01 15:12 55.86268 88.64539 35088 ft 464 kts 63°
2026-05-01 15:14 55.92110 88.91317 35081 ft 464 kts 63°
2026-05-01 15:14 55.95585 89.07435 35087 ft 464 kts 63°
2026-05-01 15:15 56.00188 89.28997 35093 ft 465 kts 64°
2026-05-01 15:16 56.04729 89.50646 35100 ft 465 kts 64°
2026-05-01 15:18 56.10374 89.77786 35102 ft 465 kts 64°
2026-05-01 15:19 56.14836 89.99469 35094 ft 465 kts 64°
2026-05-01 15:19 56.17072 90.10437 34941 ft 464 kts 64°
2026-05-01 15:19 56.18170 90.15879 34258 ft 464 kts 64°
2026-05-01 15:20 56.20381 90.26838 32658 ft 468 kts 64°
2026-05-01 15:20 56.21469 90.32234 32146 ft 462 kts 65°
2026-05-01 15:20 56.22554 90.37644 31616 ft 458 kts 65°
2026-05-01 15:21 56.23625 90.43000 31079 ft 454 kts 65°
2026-05-01 15:21 56.24685 90.48322 30558 ft 450 kts 65°
2026-05-01 15:21 56.25733 90.53614 30015 ft 447 kts 65°
2026-05-01 15:21 56.26717 90.58897 29422 ft 446 kts 70°
2026-05-01 15:22 56.27440 90.69961 28299 ft 445 kts 84°
2026-05-01 15:22 56.27567 90.75497 27751 ft 441 kts 84°
2026-05-01 15:22 56.27693 90.80990 27228 ft 437 kts 84°
2026-05-01 15:23 56.27816 90.86430 26731 ft 434 kts 84°
2026-05-01 15:23 56.27938 90.91832 26243 ft 430 kts 84°
2026-05-01 15:23 56.28055 90.97187 25768 ft 427 kts 84°
2026-05-01 15:23 56.28167 91.02502 25311 ft 423 kts 84°
2026-05-01 15:24 56.28275 91.07779 24872 ft 420 kts 84°
2026-05-01 15:24 56.28328 91.13017 24449 ft 419 kts 90°
2026-05-01 15:24 56.27997 91.18220 24030 ft 417 kts 96°
2026-05-01 15:24 56.27575 91.23369 23590 ft 415 kts 96°
2026-05-01 15:25 56.27156 91.28480 23089 ft 412 kts 96°
2026-05-01 15:25 56.26743 91.33558 22604 ft 409 kts 96°
2026-05-01 15:25 56.26332 91.38599 22136 ft 406 kts 96°
2026-05-01 15:25 56.25923 91.43605 21671 ft 402 kts 96°
2026-05-01 15:26 56.25514 91.48554 21148 ft 399 kts 96°
2026-05-01 15:26 56.25104 91.53461 20631 ft 396 kts 96°
2026-05-01 15:26 56.24690 91.58353 20039 ft 392 kts 96°
2026-05-01 15:26 56.24280 91.63177 19477 ft 389 kts 96°
2026-05-01 15:27 56.24022 91.67977 18928 ft 383 kts 87°
2026-05-01 15:27 56.24251 91.72701 18386 ft 376 kts 75°
2026-05-01 15:27 56.24779 91.77268 17769 ft 372 kts 74°
2026-05-01 15:28 56.25805 91.86300 16624 ft 365 kts 75°
2026-05-01 15:28 56.26297 91.90693 16084 ft 362 kts 75°
2026-05-01 15:28 56.26791 91.95115 15558 ft 359 kts 75°
2026-05-01 15:29 56.27759 92.03821 14455 ft 351 kts 76°
2026-05-01 15:29 56.28233 92.08111 13892 ft 348 kts 76°
2026-05-01 15:29 56.29169 92.16568 12657 ft 341 kts 77°
2026-05-01 15:30 56.29157 92.25010 11454 ft 336 kts 96°
2026-05-01 15:31 56.28120 92.41218 9653 ft 304 kts 96°
2026-05-01 15:31 56.27652 92.48632 8705 ft 294 kts 96°
2026-05-01 15:32 56.27180 92.55861 7660 ft 287 kts 96°
2026-05-01 15:32 56.26714 92.62926 6637 ft 281 kts 97°
2026-05-01 15:33 56.25145 92.72763 5001 ft 272 kts 114°
2026-05-01 15:34 56.22548 92.81536 4001 ft 266 kts 142°